sat.trackr.live / text

‹ back to catalog

STARLINK-35842

NORAD 67087 · 2025-298N

PAYLOAD ACTIVE UNKNOWN

§ Identity

Operator
Country
US
Launch date
2025-12-14
Launch site
AFWTR
Launch vehicle
Mass (kg)
RCS (m²)

Purposes: comms

External: N2YO · Heavens-Above · Gunter

§ Orbital elements

Epoch: 2026-09-18T03:00:54.895968Z

Period
96.11 min
Inclination
69.9991°
Eccentricity
0.0003848
Mean motion
14.98330809 rev/d
Perigee alt
569.4 km
Apogee alt
574.7 km
Semi-major
6,950.2 km
B*
2.5797e-4
RAAN
249.2206°
Arg perigee
268.0437°
Mean anomaly
92.0281°
Rev number
4,204

§ Raw data

STARLINK-358421 67087U 25298N   26261.12563537  .00002987  00000+0  25797-3 0  99912 67087  69.9991 249.2206 0003848 268.0437  92.0281 14.98330809 42048

JSON: /api/v1/satellites/67087 · /tle

For live sub-satellite position, see the globe view (requires WebGL).

§ Visibility from observer

Set your observer location to see the next 7 days of passes ≥ 10°. The values pass through the URL so the page stays shareable.

No JS? Fill the form by hand. The geolocation button needs JavaScript.